Location: Nakusp
(50.2330°N, 117.8000°W)
Time: 02:07:34
(UTC-08:00)

Cosmos 1939 Rocket - Visible Passes

Search period start: 08 February 2016 00:00
Search period end: 18 February 2016 00:00
Orbit: 536 x 587 km, 97.6° (Epoch: 08 February)

Date Brightness Start Highest point End Pass type
(mag) Time Alt. Az. Time Alt. Az. Time Alt. Az.
08 Feb 5.7 20:00:47 11° N 20:00:47 11° N 20:00:54 10° N visible
09 Feb 5.6 19:59:53 11° N 19:59:53 11° N 20:00:08 10° N visible
10 Feb 5.6 19:58:59 12° N 19:58:59 12° N 19:59:22 10° N visible
11 Feb 5.5 19:58:04 13° N 19:58:04 13° N 19:58:36 10° N visible
12 Feb 5.4 19:57:10 14° N 19:57:10 14° N 19:57:50 10° N visible
13 Feb 5.3 19:56:16 15° N 19:56:16 15° N 19:57:03 10° N visible
14 Feb 5.2 19:55:21 16° N 19:55:21 16° N 19:56:17 10° N visible
15 Feb 5.1 19:54:26 17° N 19:54:26 17° N 19:55:29 10° N visible
16 Feb 5.0 19:53:31 18° N 19:53:31 18° N 19:54:43 10° N visible
17 Feb 4.9 19:52:35 20° N 19:52:35 20° N 19:53:55 10° N visible
